Year,Month,Day,Hour,Minute,Value (Times are PST for windspeed in km/hr)
2019,04,06,00,00,2.10
2019,04,06,00,01,2.10
2019,04,06,00,02,4.80
2019,04,06,00,03,1.50
2019,04,06,00,04,0.50
2019,04,06,00,05,1.00
2019,04,06,00,06,0.10
2019,04,06,00,07,1.90
2019,04,06,00,08,2.50
2019,04,06,00,09,3.50
2019,04,06,00,10,1.10
2019,04,06,00,11,2.10
2019,04,06,00,12,2.70
2019,04,06,00,13,2.40
2019,04,06,00,14,2.40
2019,04,06,00,15,1.10
2019,04,06,00,16,2.50
2019,04,06,00,17,0.50
2019,04,06,00,18,1.20
2019,04,06,00,19,0.50
2019,04,06,00,20,1.20
2019,04,06,00,21,3.40
2019,04,06,00,22,2.90
2019,04,06,00,23,2.60
2019,04,06,00,24,1.10
2019,04,06,00,25,0.60
2019,04,06,00,26,0.00
2019,04,06,00,27,0.00
2019,04,06,00,28,0.00
2019,04,06,00,29,0.00
2019,04,06,00,30,0.40
2019,04,06,00,31,0.60
2019,04,06,00,32,0.60
2019,04,06,00,33,0.20
2019,04,06,00,34,1.00
2019,04,06,00,35,3.30
2019,04,06,00,36,2.60
2019,04,06,00,37,3.10
2019,04,06,00,38,4.20
2019,04,06,00,39,4.70
2019,04,06,00,40,3.60
2019,04,06,00,41,5.20
2019,04,06,00,42,4.10
2019,04,06,00,43,7.10
2019,04,06,00,44,3.90
2019,04,06,00,45,3.70
2019,04,06,00,46,6.50
2019,04,06,00,47,5.10
2019,04,06,00,48,6.00
2019,04,06,00,49,3.00
2019,04,06,00,50,1.20
2019,04,06,00,51,0.30
2019,04,06,00,52,2.50
2019,04,06,00,53,2.30
2019,04,06,00,54,0.20
2019,04,06,00,55,3.60
2019,04,06,00,56,4.10
2019,04,06,00,57,4.60
2019,04,06,00,58,5.30
2019,04,06,00,59,3.10
2019,04,06,01,00,5.70
2019,04,06,01,01,5.50
2019,04,06,01,02,5.60
2019,04,06,01,03,9.70
2019,04,06,01,04,8.90
2019,04,06,01,05,7.20
2019,04,06,01,06,6.80
2019,04,06,01,07,9.00
2019,04,06,01,08,5.00
2019,04,06,01,09,6.90
2019,04,06,01,10,6.00
2019,04,06,01,11,4.30
2019,04,06,01,12,5.10
2019,04,06,01,13,5.90
2019,04,06,01,14,6.70
2019,04,06,01,15,5.60
2019,04,06,01,16,3.90
2019,04,06,01,17,3.20
2019,04,06,01,18,3.90
2019,04,06,01,19,4.70
2019,04,06,01,20,4.50
2019,04,06,01,21,4.80
2019,04,06,01,22,3.50
2019,04,06,01,23,3.40
2019,04,06,01,24,5.10
2019,04,06,01,25,4.90
2019,04,06,01,26,3.30
2019,04,06,01,27,2.90
2019,04,06,01,28,4.10
2019,04,06,01,29,0.80
2019,04,06,01,30,3.60
2019,04,06,01,31,3.30
2019,04,06,01,32,1.30
2019,04,06,01,33,4.00
2019,04,06,01,34,1.90
2019,04,06,01,35,1.90
2019,04,06,01,36,2.10
2019,04,06,01,37,2.30
2019,04,06,01,38,1.90
2019,04,06,01,39,0.80
2019,04,06,01,40,0.10
2019,04,06,01,41,0.90
2019,04,06,01,42,2.70
2019,04,06,01,43,2.90
2019,04,06,01,44,2.20
2019,04,06,01,45,3.70
2019,04,06,01,46,1.30
2019,04,06,01,47,0.20
2019,04,06,01,48,0.10
2019,04,06,01,49,0.00
2019,04,06,01,50,0.00
2019,04,06,01,51,0.00
2019,04,06,01,52,0.00
2019,04,06,01,53,0.00
2019,04,06,01,54,0.00
2019,04,06,01,55,0.00
2019,04,06,01,56,0.10
2019,04,06,01,57,0.20
2019,04,06,01,58,2.40
2019,04,06,01,59,2.70
2019,04,06,02,00,1.80
2019,04,06,02,01,0.70
2019,04,06,02,02,0.70
2019,04,06,02,03,2.00
2019,04,06,02,04,2.60
2019,04,06,02,05,3.90
2019,04,06,02,06,1.80
2019,04,06,02,07,2.40
2019,04,06,02,08,1.20
2019,04,06,02,09,0.20
2019,04,06,02,10,1.70
2019,04,06,02,11,0.20
2019,04,06,02,12,0.30
2019,04,06,02,13,0.10
2019,04,06,02,14,1.50
2019,04,06,02,15,2.80
2019,04,06,02,16,1.20
2019,04,06,02,17,2.10
2019,04,06,02,18,3.90
2019,04,06,02,19,4.20
2019,04,06,02,20,3.70
2019,04,06,02,21,4.20
2019,04,06,02,22,2.60
2019,04,06,02,23,3.70
2019,04,06,02,24,7.20
2019,04,06,02,25,3.10
2019,04,06,02,26,6.70
2019,04,06,02,27,4.30
2019,04,06,02,28,3.50
2019,04,06,02,29,5.00
2019,04,06,02,30,4.50
2019,04,06,02,31,4.70
2019,04,06,02,32,5.20
2019,04,06,02,33,4.30
2019,04,06,02,34,6.50
2019,04,06,02,35,7.10
2019,04,06,02,36,6.70
2019,04,06,02,37,5.60
2019,04,06,02,38,5.30
2019,04,06,02,39,4.80
2019,04,06,02,40,5.00
2019,04,06,02,41,5.40
2019,04,06,02,42,5.10
2019,04,06,02,43,3.50
2019,04,06,02,44,3.60
2019,04,06,02,45,4.10
2019,04,06,02,46,6.10
2019,04,06,02,47,4.30
2019,04,06,02,48,6.70
2019,04,06,02,49,10.10
2019,04,06,02,50,6.80
2019,04,06,02,51,3.50
2019,04,06,02,52,4.90
2019,04,06,02,53,7.80
2019,04,06,02,54,4.40
2019,04,06,02,55,7.10
2019,04,06,02,56,7.10
2019,04,06,02,57,3.60
2019,04,06,02,58,5.90
2019,04,06,02,59,3.00
2019,04,06,03,00,4.80
2019,04,06,03,01,4.10
2019,04,06,03,02,3.50
2019,04,06,03,03,7.80
2019,04,06,03,04,4.70
2019,04,06,03,05,6.50
2019,04,06,03,06,9.50
2019,04,06,03,07,7.80
2019,04,06,03,08,4.80
2019,04,06,03,09,7.10
2019,04,06,03,10,6.10
2019,04,06,03,11,6.40
2019,04,06,03,12,11.90
2019,04,06,03,13,9.70
2019,04,06,03,14,8.70
2019,04,06,03,15,9.40
2019,04,06,03,16,9.00
2019,04,06,03,17,11.50
2019,04,06,03,18,9.50
2019,04,06,03,19,7.10
2019,04,06,03,20,7.50
2019,04,06,03,21,4.50
2019,04,06,03,22,6.80
2019,04,06,03,23,8.50
2019,04,06,03,24,7.70
2019,04,06,03,25,10.00
2019,04,06,03,26,9.80
2019,04,06,03,27,10.90
2019,04,06,03,28,8.00
2019,04,06,03,29,7.30
2019,04,06,03,30,4.60
2019,04,06,03,31,6.90
2019,04,06,03,32,6.20
2019,04,06,03,33,7.70
2019,04,06,03,34,6.70
2019,04,06,03,35,8.30
2019,04,06,03,36,7.00
2019,04,06,03,37,11.70
2019,04,06,03,38,7.30
2019,04,06,03,39,7.70
2019,04,06,03,40,6.20
2019,04,06,03,41,6.50
2019,04,06,03,42,6.30
2019,04,06,03,43,4.30
2019,04,06,03,44,7.10
2019,04,06,03,45,6.90
2019,04,06,03,46,5.70
2019,04,06,03,47,7.20
2019,04,06,03,48,7.40
2019,04,06,03,49,6.70
2019,04,06,03,50,8.20
2019,04,06,03,51,4.10
2019,04,06,03,52,5.50
2019,04,06,03,53,7.40
2019,04,06,03,54,9.70
2019,04,06,03,55,7.10
2019,04,06,03,56,6.40
2019,04,06,03,57,9.00
2019,04,06,03,58,11.90
2019,04,06,03,59,6.60
2019,04,06,04,00,5.30
2019,04,06,04,01,5.90
2019,04,06,04,02,6.70
2019,04,06,04,03,6.90
2019,04,06,04,04,5.40
2019,04,06,04,05,5.90
2019,04,06,04,06,11.20
2019,04,06,04,07,12.00
2019,04,06,04,08,5.40
2019,04,06,04,09,7.20
2019,04,06,04,10,4.00
2019,04,06,04,11,2.50
2019,04,06,04,12,5.80
2019,04,06,04,13,6.50
2019,04,06,04,14,5.40
2019,04,06,04,15,6.00
2019,04,06,04,16,10.70
2019,04,06,04,17,8.00
2019,04,06,04,18,9.80
2019,04,06,04,19,9.70
2019,04,06,04,20,8.00
2019,04,06,04,21,7.60
2019,04,06,04,22,8.00
2019,04,06,04,23,7.40
2019,04,06,04,24,5.30
2019,04,06,04,25,6.70
2019,04,06,04,26,8.70
2019,04,06,04,27,9.50
2019,04,06,04,28,10.10
2019,04,06,04,29,7.90
2019,04,06,04,30,10.40
2019,04,06,04,31,9.20
2019,04,06,04,32,5.10
2019,04,06,04,33,11.40
2019,04,06,04,34,6.70
2019,04,06,04,35,6.70
2019,04,06,04,36,7.10
2019,04,06,04,37,15.70
2019,04,06,04,38,13.10
2019,04,06,04,39,11.60
2019,04,06,04,40,13.90
2019,04,06,04,41,8.30
2019,04,06,04,42,9.60
2019,04,06,04,43,10.10
2019,04,06,04,44,13.60
2019,04,06,04,45,10.20
2019,04,06,04,46,11.50
2019,04,06,04,47,14.30
2019,04,06,04,48,10.90
2019,04,06,04,49,10.60
2019,04,06,04,50,13.70
2019,04,06,04,51,8.90
2019,04,06,04,52,16.20
2019,04,06,04,53,11.00
2019,04,06,04,54,12.40
2019,04,06,04,55,9.10
2019,04,06,04,56,7.20
2019,04,06,04,57,8.10
2019,04,06,04,58,11.60
2019,04,06,04,59,16.80
2019,04,06,05,00,16.10
2019,04,06,05,01,15.20
2019,04,06,05,02,16.20
2019,04,06,05,03,11.60
2019,04,06,05,04,13.70
2019,04,06,05,05,17.20
2019,04,06,05,06,22.80
2019,04,06,05,07,12.20
2019,04,06,05,08,15.40
2019,04,06,05,09,9.90
2019,04,06,05,10,15.20
2019,04,06,05,11,15.70
2019,04,06,05,12,13.80
2019,04,06,05,13,17.90
2019,04,06,05,14,19.90
2019,04,06,05,15,15.90
2019,04,06,05,16,18.50
2019,04,06,05,17,16.70
2019,04,06,05,18,18.90
2019,04,06,05,19,15.20
2019,04,06,05,20,16.10
2019,04,06,05,21,8.30
2019,04,06,05,22,12.00
2019,04,06,05,23,13.00
2019,04,06,05,24,19.60
2019,04,06,05,25,13.00
2019,04,06,05,26,11.50
2019,04,06,05,27,12.10
2019,04,06,05,28,16.80
2019,04,06,05,29,16.30
2019,04,06,05,30,14.10
2019,04,06,05,31,11.80
2019,04,06,05,32,17.40
2019,04,06,05,33,17.90
2019,04,06,05,34,15.60
2019,04,06,05,35,18.10
2019,04,06,05,36,13.00
2019,04,06,05,37,10.00
2019,04,06,05,38,11.50
2019,04,06,05,39,14.40
2019,04,06,05,40,11.50
2019,04,06,05,41,11.50
2019,04,06,05,42,13.80
2019,04,06,05,43,15.60
2019,04,06,05,44,11.40
2019,04,06,05,45,14.20
2019,04,06,05,46,14.60
2019,04,06,05,47,13.30
2019,04,06,05,48,17.50
2019,04,06,05,49,13.10
2019,04,06,05,50,9.80
2019,04,06,05,51,15.90
2019,04,06,05,52,21.10
2019,04,06,05,53,23.20
2019,04,06,05,54,14.70
2019,04,06,05,55,16.20
2019,04,06,05,56,15.60
2019,04,06,05,57,19.80
2019,04,06,05,58,16.30
2019,04,06,05,59,12.60
2019,04,06,06,00,10.30
2019,04,06,06,01,20.20
2019,04,06,06,02,18.40
2019,04,06,06,03,17.30
2019,04,06,06,04,15.30
2019,04,06,06,05,18.40
2019,04,06,06,06,23.40
2019,04,06,06,07,21.50
2019,04,06,06,08,12.70
2019,04,06,06,09,13.30
2019,04,06,06,10,16.90
2019,04,06,06,11,17.90
2019,04,06,06,12,17.20
2019,04,06,06,13,20.10
2019,04,06,06,14,17.70
2019,04,06,06,15,17.40
2019,04,06,06,16,15.60
2019,04,06,06,17,15.10
2019,04,06,06,18,11.30
2019,04,06,06,19,16.20
2019,04,06,06,20,19.00
2019,04,06,06,21,17.60
2019,04,06,06,22,13.90
2019,04,06,06,23,14.80
2019,04,06,06,24,19.00
2019,04,06,06,25,12.30
2019,04,06,06,26,11.10
2019,04,06,06,27,16.80
2019,04,06,06,28,23.40
2019,04,06,06,29,17.50
2019,04,06,06,30,25.60
2019,04,06,06,31,21.90
2019,04,06,06,32,16.50
2019,04,06,06,33,16.40
2019,04,06,06,34,12.60
2019,04,06,06,35,16.20
2019,04,06,06,36,16.30
2019,04,06,06,37,16.70
2019,04,06,06,38,18.40
2019,04,06,06,39,21.50
2019,04,06,06,40,23.90
2019,04,06,06,41,20.00
2019,04,06,06,42,21.90
2019,04,06,06,43,22.30
2019,04,06,06,44,22.90
2019,04,06,06,45,23.00
2019,04,06,06,46,23.10
2019,04,06,06,47,21.80
2019,04,06,06,48,18.40
2019,04,06,06,49,21.80
2019,04,06,06,50,24.40
2019,04,06,06,51,23.00
2019,04,06,06,52,13.50
2019,04,06,06,53,23.20
2019,04,06,06,54,21.70
2019,04,06,06,55,20.90
2019,04,06,06,56,14.60
2019,04,06,06,57,13.40
2019,04,06,06,58,23.60
2019,04,06,06,59,22.90
2019,04,06,07,00,19.80
2019,04,06,07,01,22.50
2019,04,06,07,02,29.30
2019,04,06,07,03,24.20
2019,04,06,07,04,18.70
2019,04,06,07,05,17.80
2019,04,06,07,06,26.40
2019,04,06,07,07,19.50
2019,04,06,07,08,16.30
2019,04,06,07,09,19.50
2019,04,06,07,10,20.70
2019,04,06,07,11,22.70
2019,04,06,07,12,21.80
2019,04,06,07,13,24.80
2019,04,06,07,14,27.20
2019,04,06,07,15,29.20
2019,04,06,07,16,23.90
2019,04,06,07,17,20.50
2019,04,06,07,18,17.10
2019,04,06,07,19,21.30
2019,04,06,07,20,19.80
2019,04,06,07,21,20.30
2019,04,06,07,22,25.20
2019,04,06,07,23,27.30
2019,04,06,07,24,16.70
2019,04,06,07,25,17.90
2019,04,06,07,26,26.20
2019,04,06,07,27,23.30
2019,04,06,07,28,16.00
2019,04,06,07,29,16.90
2019,04,06,07,30,11.80
2019,04,06,07,31,16.60
2019,04,06,07,32,22.80
2019,04,06,07,33,33.00
2019,04,06,07,34,29.00
2019,04,06,07,35,27.60
2019,04,06,07,36,24.20
2019,04,06,07,37,20.20
2019,04,06,07,38,27.60
2019,04,06,07,39,31.10
2019,04,06,07,40,20.00
2019,04,06,07,41,26.60
2019,04,06,07,42,21.60
2019,04,06,07,43,22.40
2019,04,06,07,44,29.60
2019,04,06,07,45,26.00
2019,04,06,07,46,22.70
2019,04,06,07,47,24.00
2019,04,06,07,48,23.50
2019,04,06,07,49,27.80
2019,04,06,07,50,32.80
2019,04,06,07,51,30.30
2019,04,06,07,52,29.90
2019,04,06,07,53,18.60
2019,04,06,07,54,21.10
2019,04,06,07,55,19.00
2019,04,06,07,56,19.10
2019,04,06,07,57,16.90
2019,04,06,07,58,19.20
2019,04,06,07,59,33.60
2019,04,06,08,00,28.30
2019,04,06,08,01,30.30
2019,04,06,08,02,29.20
2019,04,06,08,03,20.20
2019,04,06,08,04,19.50
2019,04,06,08,05,18.90
2019,04,06,08,06,22.50
2019,04,06,08,07,17.30
2019,04,06,08,08,25.00
2019,04,06,08,09,21.80
2019,04,06,08,10,28.20
2019,04,06,08,11,22.90
2019,04,06,08,12,17.60
2019,04,06,08,13,13.20
2019,04,06,08,14,18.70
2019,04,06,08,15,23.90
2019,04,06,08,16,25.30
2019,04,06,08,17,25.10
2019,04,06,08,18,26.70
2019,04,06,08,19,21.50
2019,04,06,08,20,15.20
2019,04,06,08,21,25.30
2019,04,06,08,22,24.60
2019,04,06,08,23,18.30
2019,04,06,08,24,18.90
2019,04,06,08,25,13.80
2019,04,06,08,26,15.80
2019,04,06,08,27,16.20
2019,04,06,08,28,12.30
2019,04,06,08,29,17.20
2019,04,06,08,30,23.30
2019,04,06,08,31,27.90
2019,04,06,08,32,29.00
2019,04,06,08,33,17.50
2019,04,06,08,34,19.50
2019,04,06,08,35,20.70
2019,04,06,08,36,17.40
2019,04,06,08,37,18.10
2019,04,06,08,38,26.20
2019,04,06,08,39,20.00
2019,04,06,08,40,19.40
2019,04,06,08,41,19.80
2019,04,06,08,42,27.10
2019,04,06,08,43,26.00
2019,04,06,08,44,37.10
2019,04,06,08,45,27.80
2019,04,06,08,46,28.30
2019,04,06,08,47,30.40
2019,04,06,08,48,26.20
2019,04,06,08,49,31.90
2019,04,06,08,50,22.50
2019,04,06,08,51,24.10
2019,04,06,08,52,19.10
2019,04,06,08,53,24.60
2019,04,06,08,54,30.20
2019,04,06,08,55,27.70
2019,04,06,08,56,22.10
2019,04,06,08,57,18.40
2019,04,06,08,58,25.60
2019,04,06,08,59,24.40
2019,04,06,09,00,37.80
2019,04,06,09,01,30.70
2019,04,06,09,02,28.70
2019,04,06,09,03,27.80
2019,04,06,09,04,24.20
2019,04,06,09,05,28.90
2019,04,06,09,06,22.50
2019,04,06,09,07,29.50
2019,04,06,09,08,29.60
2019,04,06,09,09,33.20
2019,04,06,09,10,36.00
2019,04,06,09,11,27.50
2019,04,06,09,12,32.70
2019,04,06,09,13,35.90
2019,04,06,09,14,33.40
2019,04,06,09,15,29.60
2019,04,06,09,16,22.40
2019,04,06,09,17,36.70
2019,04,06,09,18,24.30
2019,04,06,09,19,25.10
2019,04,06,09,20,22.80
2019,04,06,09,21,32.70
2019,04,06,09,22,28.70
2019,04,06,09,23,29.80
2019,04,06,09,24,19.80
2019,04,06,09,25,27.70
2019,04,06,09,26,28.60
2019,04,06,09,27,30.00
2019,04,06,09,28,32.10
2019,04,06,09,29,27.10
2019,04,06,09,30,24.70
2019,04,06,09,31,20.40
2019,04,06,09,32,36.10
2019,04,06,09,33,34.40
2019,04,06,09,34,31.70
2019,04,06,09,35,39.30
2019,04,06,09,36,41.80
2019,04,06,09,37,40.20
2019,04,06,09,38,31.30
2019,04,06,09,39,30.70
2019,04,06,09,40,36.10
2019,04,06,09,41,44.10
2019,04,06,09,42,35.70
2019,04,06,09,43,32.60
2019,04,06,09,44,29.00
2019,04,06,09,45,31.50
2019,04,06,09,46,37.30
2019,04,06,09,47,35.50
2019,04,06,09,48,40.90
2019,04,06,09,49,27.60
2019,04,06,09,50,35.60
2019,04,06,09,51,41.80
2019,04,06,09,52,37.90
2019,04,06,09,53,41.50
2019,04,06,09,54,38.20
2019,04,06,09,55,36.50
2019,04,06,09,56,48.90
2019,04,06,09,57,39.20
2019,04,06,09,58,33.50
2019,04,06,09,59,34.30
2019,04,06,10,00,34.90
2019,04,06,10,01,36.50
2019,04,06,10,02,38.10
2019,04,06,10,03,28.80
2019,04,06,10,04,29.70
2019,04,06,10,05,36.90
2019,04,06,10,06,32.50
2019,04,06,10,07,29.70
2019,04,06,10,08,32.30
2019,04,06,10,09,30.90
2019,04,06,10,10,24.40
2019,04,06,10,11,33.00
2019,04,06,10,12,18.60
2019,04,06,13,54,15.90
2019,04,06,13,55,13.60
2019,04,06,13,56,15.60
2019,04,06,13,57,12.80
2019,04,06,13,58,18.90
2019,04,06,13,59,18.90
2019,04,06,14,00,15.80
2019,04,06,14,01,17.10
2019,04,06,14,02,13.40
2019,04,06,14,03,18.30
2019,04,06,14,04,11.70
2019,04,06,14,05,16.00
2019,04,06,14,06,17.90
2019,04,06,14,07,14.60
2019,04,06,14,08,15.40
2019,04,06,14,09,16.30
2019,04,06,14,10,20.70
2019,04,06,14,11,16.90
2019,04,06,14,12,19.70
2019,04,06,14,13,19.10
2019,04,06,14,14,15.30
2019,04,06,14,15,15.50
2019,04,06,14,16,13.60
2019,04,06,14,17,16.70
2019,04,06,14,18,16.30
2019,04,06,14,19,17.80
2019,04,06,14,20,13.60
2019,04,06,14,21,14.60
2019,04,06,14,22,12.30
2019,04,06,14,23,14.30
2019,04,06,14,24,17.70
2019,04,06,14,25,19.00
2019,04,06,14,26,22.30
2019,04,06,14,27,13.00
2019,04,06,14,28,12.20
2019,04,06,14,29,20.60
2019,04,06,14,30,18.60
2019,04,06,14,31,19.00
2019,04,06,14,32,16.30
2019,04,06,14,33,18.70
2019,04,06,14,34,15.30
2019,04,06,14,35,23.70
2019,04,06,14,36,17.90
2019,04,06,14,37,16.60
2019,04,06,14,38,14.30
2019,04,06,14,39,16.80
2019,04,06,14,40,12.00
2019,04,06,14,41,12.20
2019,04,06,14,42,11.30
2019,04,06,14,43,8.60
2019,04,06,14,44,17.00
2019,04,06,14,45,14.20
2019,04,06,14,46,22.80
2019,04,06,14,47,20.00
2019,04,06,14,48,16.20
2019,04,06,14,49,16.00
2019,04,06,14,50,14.70
2019,04,06,14,51,18.20
2019,04,06,14,52,13.40
2019,04,06,14,53,13.20
2019,04,06,14,54,10.80
2019,04,06,14,55,16.90
2019,04,06,14,56,18.20
2019,04,06,14,57,14.20
2019,04,06,14,58,15.80
2019,04,06,14,59,17.90
2019,04,06,15,00,13.30
2019,04,06,15,01,12.60
2019,04,06,15,02,17.10
2019,04,06,15,03,13.70
2019,04,06,15,04,18.10
2019,04,06,15,05,17.50
2019,04,06,15,06,12.50
2019,04,06,15,07,13.80
2019,04,06,15,08,11.50
2019,04,06,15,09,14.10
2019,04,06,15,10,16.50
2019,04,06,15,11,14.90
2019,04,06,15,12,16.60
2019,04,06,15,13,10.00
2019,04,06,15,14,11.50
2019,04,06,15,15,11.00
2019,04,06,15,16,9.80
2019,04,06,15,17,9.50
2019,04,06,15,18,10.20
2019,04,06,15,19,14.50
2019,04,06,15,20,15.40
2019,04,06,15,21,11.20
2019,04,06,15,22,11.30
2019,04,06,15,23,15.40
2019,04,06,15,24,20.10
2019,04,06,15,25,15.50
2019,04,06,15,26,13.00
2019,04,06,15,27,18.00
2019,04,06,15,28,16.00
2019,04,06,15,29,18.50
2019,04,06,15,30,17.90
2019,04,06,15,31,21.00
2019,04,06,15,32,21.40
2019,04,06,15,33,26.00
2019,04,06,15,34,20.10
2019,04,06,15,35,27.50
2019,04,06,15,36,23.80
2019,04,06,15,37,19.00
2019,04,06,15,38,17.70
2019,04,06,15,39,25.30
2019,04,06,15,40,22.90
2019,04,06,15,41,23.00
2019,04,06,15,42,21.10
2019,04,06,15,43,17.30
2019,04,06,15,44,17.40
2019,04,06,15,45,21.90
2019,04,06,15,46,25.90
2019,04,06,15,47,24.70
2019,04,06,15,48,19.90
2019,04,06,15,49,19.90
2019,04,06,15,50,20.10
2019,04,06,15,51,15.90
2019,04,06,15,52,20.40
2019,04,06,15,53,21.60
2019,04,06,15,54,27.80
2019,04,06,15,55,24.10
2019,04,06,15,56,18.80
2019,04,06,15,57,20.80
2019,04,06,15,58,17.30
2019,04,06,15,59,23.00
2019,04,06,16,00,20.00
2019,04,06,16,01,15.00
2019,04,06,16,02,20.80
2019,04,06,16,03,21.90
2019,04,06,16,04,19.90
2019,04,06,16,05,22.80
2019,04,06,16,06,16.00
2019,04,06,16,07,14.50
2019,04,06,16,08,23.90
2019,04,06,16,09,26.50
2019,04,06,16,10,17.30
2019,04,06,16,11,22.00
2019,04,06,16,12,20.90
2019,04,06,16,13,23.80
2019,04,06,16,14,20.40
2019,04,06,16,15,21.10
2019,04,06,16,16,19.90
2019,04,06,16,17,24.90
2019,04,06,16,18,23.20
2019,04,06,16,19,25.10
2019,04,06,16,20,20.00
2019,04,06,16,21,25.20
2019,04,06,16,22,27.70
2019,04,06,16,23,20.90
2019,04,06,16,24,15.40
2019,04,06,16,25,17.40
2019,04,06,16,26,13.40
2019,04,06,16,27,18.10
2019,04,06,16,28,12.40
2019,04,06,16,29,10.10
2019,04,06,16,30,15.80
2019,04,06,16,31,13.50
2019,04,06,16,32,15.00
2019,04,06,16,33,14.50
2019,04,06,16,34,11.40
2019,04,06,16,35,15.50
2019,04,06,16,36,16.40
2019,04,06,16,37,17.50
2019,04,06,16,38,18.00
2019,04,06,16,39,14.90
2019,04,06,16,40,14.10
2019,04,06,16,41,18.00
2019,04,06,16,42,12.20
2019,04,06,16,43,16.90
2019,04,06,16,44,13.10
2019,04,06,16,45,14.10
2019,04,06,16,46,15.00
2019,04,06,16,47,10.20
2019,04,06,16,48,9.10
2019,04,06,16,49,7.70
2019,04,06,16,50,15.30
2019,04,06,16,51,13.70
2019,04,06,16,52,16.30
2019,04,06,16,53,16.30
2019,04,06,16,54,16.90
2019,04,06,16,55,12.10
2019,04,06,16,56,13.30
2019,04,06,16,57,12.00
2019,04,06,16,58,9.30
2019,04,06,16,59,10.50
2019,04,06,17,00,13.20
2019,04,06,17,01,7.90
2019,04,06,17,02,10.20
2019,04,06,17,03,11.90
2019,04,06,17,04,7.40
2019,04,06,17,05,5.20
2019,04,06,17,06,5.60
2019,04,06,17,07,8.00
2019,04,06,17,08,8.40
2019,04,06,17,09,8.60
2019,04,06,17,10,9.60
2019,04,06,17,11,9.70
2019,04,06,17,12,12.90
2019,04,06,17,13,5.80
2019,04,06,17,14,2.80
2019,04,06,17,15,1.50
2019,04,06,17,16,2.70
2019,04,06,17,17,3.70
2019,04,06,17,18,8.10
2019,04,06,17,19,7.70
2019,04,06,17,20,2.90
2019,04,06,17,21,3.40
2019,04,06,17,22,5.00
2019,04,06,17,23,1.90
2019,04,06,17,24,5.10
2019,04,06,17,25,7.60
2019,04,06,17,26,9.40
2019,04,06,17,27,8.20
2019,04,06,17,28,5.80
2019,04,06,17,29,3.30
2019,04,06,17,30,6.10
2019,04,06,17,31,5.40
2019,04,06,17,32,5.80
2019,04,06,17,33,6.40
2019,04,06,17,34,5.40
2019,04,06,17,35,6.80
2019,04,06,17,36,5.10
2019,04,06,17,37,8.50
2019,04,06,17,38,5.90
2019,04,06,17,39,9.40
2019,04,06,17,40,10.10
2019,04,06,17,41,6.70
2019,04,06,17,42,4.70
2019,04,06,17,43,3.10
2019,04,06,17,44,5.00
2019,04,06,17,45,12.10
2019,04,06,17,46,13.30
2019,04,06,17,47,11.50
2019,04,06,17,48,11.50
2019,04,06,17,49,14.30
2019,04,06,17,50,10.60
2019,04,06,17,51,10.40
2019,04,06,17,52,10.10
2019,04,06,17,53,15.40
2019,04,06,17,54,16.60
2019,04,06,17,55,11.20
2019,04,06,17,56,10.90
2019,04,06,17,57,8.30
2019,04,06,17,58,10.70
2019,04,06,17,59,10.60
2019,04,06,18,00,8.50
2019,04,06,18,01,10.40
2019,04,06,18,02,8.30
2019,04,06,18,03,8.10
2019,04,06,18,04,6.00
2019,04,06,18,05,10.30
2019,04,06,18,06,8.90
2019,04,06,18,07,9.20
2019,04,06,18,08,10.80
2019,04,06,18,09,8.20
2019,04,06,18,10,6.80
2019,04,06,18,11,6.90
2019,04,06,18,12,8.60
2019,04,06,18,13,7.20
2019,04,06,18,14,11.50
2019,04,06,18,15,16.90
2019,04,06,18,16,18.70
2019,04,06,18,17,12.40
2019,04,06,18,18,13.90
2019,04,06,18,19,16.40
2019,04,06,18,20,19.70
2019,04,06,18,21,18.40
2019,04,06,18,22,17.50
2019,04,06,18,23,12.90
2019,04,06,18,24,17.00
2019,04,06,18,25,17.00
2019,04,06,18,26,19.20
2019,04,06,18,27,14.50
2019,04,06,18,28,11.50
2019,04,06,18,29,13.70
2019,04,06,18,30,12.90
2019,04,06,18,31,11.30
2019,04,06,18,32,14.90
2019,04,06,18,33,13.10
2019,04,06,18,34,17.20
2019,04,06,18,35,13.80
2019,04,06,18,36,11.70
2019,04,06,18,37,12.90
2019,04,06,18,38,11.30
2019,04,06,18,39,13.60
2019,04,06,18,40,11.60
2019,04,06,18,41,10.80
2019,04,06,18,42,22.60
2019,04,06,18,43,23.10
2019,04,06,18,44,22.50
2019,04,06,18,45,15.30
2019,04,06,18,46,16.00
2019,04,06,18,47,18.90
2019,04,06,18,48,20.80
2019,04,06,18,49,21.50
2019,04,06,18,50,19.80
2019,04,06,18,51,18.90
2019,04,06,18,52,17.70
2019,04,06,18,53,23.30
2019,04,06,18,54,20.20
2019,04,06,18,55,15.60
2019,04,06,18,56,13.30
2019,04,06,18,57,20.30
2019,04,06,18,58,15.90
2019,04,06,18,59,16.40
2019,04,06,19,00,17.50
2019,04,06,19,01,12.80
2019,04,06,19,02,12.80
2019,04,06,19,03,18.90
2019,04,06,19,04,16.30
2019,04,06,19,05,17.30
2019,04,06,19,06,17.60
2019,04,06,19,07,20.60
2019,04,06,19,08,19.50
2019,04,06,19,09,15.50
2019,04,06,19,10,15.60
2019,04,06,19,11,12.50
2019,04,06,19,12,15.30
2019,04,06,19,13,15.20
2019,04,06,19,14,12.20
2019,04,06,19,15,11.30
2019,04,06,19,16,10.80
2019,04,06,19,17,12.80
2019,04,06,19,18,14.70
2019,04,06,19,19,14.60
2019,04,06,19,20,15.70
2019,04,06,19,21,16.40
2019,04,06,19,22,19.80
2019,04,06,19,23,21.00
2019,04,06,19,24,12.70
2019,04,06,19,25,10.50
2019,04,06,19,26,12.30
2019,04,06,19,27,15.90
2019,04,06,19,28,11.00
2019,04,06,19,29,14.50
2019,04,06,19,30,13.30
2019,04,06,19,31,14.40
2019,04,06,19,32,15.10
2019,04,06,19,33,14.60
2019,04,06,19,34,10.00
2019,04,06,19,35,10.70
2019,04,06,19,36,9.00
2019,04,06,19,37,13.10
2019,04,06,19,38,11.20
2019,04,06,19,39,10.70
2019,04,06,19,40,12.40
2019,04,06,19,41,11.70
2019,04,06,19,42,13.20
2019,04,06,19,43,14.30
2019,04,06,19,44,11.30
2019,04,06,19,45,12.90
2019,04,06,19,46,13.80
2019,04,06,19,47,10.90
2019,04,06,19,48,11.20
2019,04,06,19,49,12.60
2019,04,06,19,50,13.90
2019,04,06,19,51,9.10
2019,04,06,19,52,11.20
2019,04,06,19,53,13.60
2019,04,06,19,54,8.60
2019,04,06,19,55,10.50
2019,04,06,19,56,13.00
2019,04,06,19,57,10.40
2019,04,06,19,58,12.70
2019,04,06,19,59,12.00
2019,04,06,20,00,14.00
2019,04,06,20,01,13.90
2019,04,06,20,02,16.70
2019,04,06,20,03,14.90
2019,04,06,20,04,14.10
2019,04,06,20,05,15.80
2019,04,06,20,06,8.40
2019,04,06,20,07,11.60
2019,04,06,20,08,16.60
2019,04,06,20,09,14.60
2019,04,06,20,10,12.20
2019,04,06,20,11,13.40
2019,04,06,20,12,10.40
2019,04,06,20,13,14.30
2019,04,06,20,14,13.90
2019,04,06,20,15,11.20
2019,04,06,20,16,10.70
2019,04,06,20,17,9.10
2019,04,06,20,18,12.90
2019,04,06,20,19,11.30
2019,04,06,20,20,10.90
2019,04,06,20,21,14.00
2019,04,06,20,22,9.00
2019,04,06,20,23,10.40
2019,04,06,20,24,8.00
2019,04,06,20,25,7.70
2019,04,06,20,26,8.40
2019,04,06,20,27,9.70
2019,04,06,20,28,8.70
2019,04,06,20,29,6.50
2019,04,06,20,30,6.50
2019,04,06,20,31,6.20
2019,04,06,20,32,5.90
2019,04,06,20,33,7.10
2019,04,06,20,34,6.20
2019,04,06,20,35,5.90
2019,04,06,20,36,7.30
2019,04,06,20,37,7.20
2019,04,06,20,38,7.10
2019,04,06,20,39,9.10
2019,04,06,20,40,6.10
2019,04,06,20,41,7.60
2019,04,06,20,42,6.50
2019,04,06,20,43,8.40
2019,04,06,20,44,7.60
2019,04,06,20,45,6.60
2019,04,06,20,46,5.00
2019,04,06,20,47,4.60
2019,04,06,20,48,6.70
2019,04,06,20,49,7.60
2019,04,06,20,50,6.10
2019,04,06,20,51,6.10
2019,04,06,20,52,6.40
2019,04,06,20,53,12.10
2019,04,06,20,54,9.80
2019,04,06,20,55,6.40
2019,04,06,20,56,8.40
2019,04,06,20,57,6.00
2019,04,06,20,58,5.00
2019,04,06,20,59,5.40
2019,04,06,21,00,5.20
2019,04,06,21,01,4.40
2019,04,06,21,02,2.10
2019,04,06,21,03,4.40
2019,04,06,21,04,5.60
2019,04,06,21,05,5.20
2019,04,06,21,06,4.60
2019,04,06,21,07,2.10
2019,04,06,21,08,2.10
2019,04,06,21,09,3.50
2019,04,06,21,10,4.30
2019,04,06,21,11,3.90
2019,04,06,21,12,5.90
2019,04,06,21,13,4.20
2019,04,06,21,14,3.40
2019,04,06,21,15,2.90
2019,04,06,21,16,3.90
2019,04,06,21,17,1.80